TimeEST,TemperatureF,Dew PointF,Humidity,Sea Level PressureIn,VisibilityMPH,Wind Direction,Wind SpeedMPH,Gust SpeedMPH,PrecipitationIn,Events,Conditions,WindDirDegrees,DateUTC
12:51 AM,45.0,36.0,71,30.22,10.0,SSE,6.9,17.3,N/A,,Overcast,150,2007-01-01 05:51:00
1:51 AM,46.0,37.0,71,30.18,10.0,SSE,6.9,19.6,N/A,,Overcast,150,2007-01-01 06:51:00
2:39 AM,44.6,39.2,81,30.18,7.0,SSE,4.6,-,0.02,Rain,Light Rain,150,2007-01-01 07:39:00
2:48 AM,44.6,41.0,87,30.17,8.0,SSE,8.1,-,0.03,Rain,Light Rain,160,2007-01-01 07:48:00
2:51 AM,45.0,41.0,86,30.14,9.0,Variable,3.5,-,0.03,Rain,Light Rain,0,2007-01-01 07:51:00
3:33 AM,46.4,42.8,87,30.14,3.0,SSE,5.8,-,0.05,Rain,Rain,150,2007-01-01 08:33:00
3:44 AM,46.4,42.8,87,30.13,4.0,SSE,11.5,18.4,0.07,Rain,Rain,160,2007-01-01 08:44:00
3:51 AM,46.0,43.0,89,30.10,4.0,Variable,3.5,18.4,0.09,Rain,Light Rain,0,2007-01-01 08:51:00
4:09 AM,46.4,44.6,93,30.11,4.0,SSE,8.1,17.3,0.01,Rain,Light Rain,150,2007-01-01 09:09:00
4:51 AM,46.9,44.1,90,30.06,7.0,SSE,8.1,20.7,0.05,,Overcast,150,2007-01-01 09:51:00
5:51 AM,48.0,46.0,93,30.02,3.0,SSE,5.8,-,0.03,Rain,Rain,160,2007-01-01 10:51:00
5:58 AM,48.2,46.4,93,30.04,2.5,Variable,5.8,18.4,0.02,Rain,Light Rain,0,2007-01-01 10:58:00
6:06 AM,48.2,46.4,93,30.03,3.0,SE,9.2,19.6,0.03,Rain,Rain,140,2007-01-01 11:06:00
6:27 AM,50.0,48.2,94,30.03,1.8,SSE,6.9,-,0.08,Rain,Heavy Rain,160,2007-01-01 11:27:00
6:51 AM,50.0,48.0,93,30.01,1.8,Variable,4.6,-,0.25,Rain,Heavy Rain,0,2007-01-01 11:51:00
7:51 AM,52.0,50.0,93,30.00,1.8,South,9.2,-,0.44,Rain,Rain,190,2007-01-01 12:51:00
7:59 AM,51.8,50.0,94,30.02,2.0,Variable,5.8,-,0.04,Rain,Heavy Rain,0,2007-01-01 12:59:00
8:13 AM,51.8,50.0,94,29.99,2.0,South,3.5,-,0.11,Rain,Rain,170,2007-01-01 13:13:00
8:21 AM,51.8,50.0,94,30.00,1.8,Calm,Calm,-,0.15,Rain,Rain,0,2007-01-01 13:21:00
8:26 AM,51.8,50.0,94,30.00,2.0,SE,4.6,-,0.18,Rain,Heavy Rain,140,2007-01-01 13:26:00
8:33 AM,51.8,50.0,94,29.99,1.2,SSE,3.5,-,0.21,Rain,Rain,160,2007-01-01 13:33:00
8:42 AM,51.8,50.0,94,29.99,1.2,Calm,Calm,-,0.25,Rain,Heavy Rain,0,2007-01-01 13:42:00
8:51 AM,52.0,51.1,97,29.97,1.5,Variable,3.5,-,0.29,Rain,Rain,0,2007-01-01 13:51:00
9:24 AM,53.6,51.8,94,29.98,2.0,Calm,Calm,-,0.09,Rain,Rain,0,2007-01-01 14:24:00
9:51 AM,53.1,51.1,93,29.94,0.8,Calm,Calm,-,0.14,Rain,Rain,0,2007-01-01 14:51:00
10:05 AM,53.6,51.8,94,29.95,2.0,Calm,Calm,-,0.01,Rain,Light Rain,0,2007-01-01 15:05:00
10:22 AM,53.6,51.8,94,29.94,4.0,Calm,Calm,-,0.02,Rain,Light Rain,0,2007-01-01 15:22:00
10:30 AM,53.6,51.8,94,29.94,1.8,Calm,Calm,-,0.03,Rain,Light Rain,0,2007-01-01 15:30:00
10:43 AM,53.6,51.8,94,29.93,1.8,Calm,Calm,-,0.05,Rain,Light Rain,0,2007-01-01 15:43:00
10:51 AM,53.1,52.0,96,29.90,1.0,NE,3.5,-,0.06,Rain,Light Rain,50,2007-01-01 15:51:00
10:55 AM,53.6,51.8,94,29.92,0.8,NNE,3.5,-,0.00,Rain,Light Rain,30,2007-01-01 15:55:00
11:03 AM,53.6,51.8,94,29.91,0.5,Calm,Calm,-,0.00,Fog-Rain,Light Rain,0,2007-01-01 16:03:00
11:21 AM,53.6,53.6,100,29.89,2.0,SSE,4.6,-,0.02,,Overcast,160,2007-01-01 16:21:00
11:51 AM,55.0,53.1,93,29.85,2.0,SSE,5.8,-,0.02,,Overcast,160,2007-01-01 16:51:00
11:59 AM,55.4,53.6,94,29.87,1.8,SSE,5.8,-,N/A,,Overcast,160,2007-01-01 16:59:00
12:16 PM,55.4,53.6,94,29.85,1.5,SSE,3.5,-,0.01,,Overcast,160,2007-01-01 17:16:00
12:51 PM,55.0,54.0,96,29.81,1.8,Calm,Calm,-,0.02,,Overcast,0,2007-01-01 17:51:00
1:03 PM,55.4,53.6,94,29.82,0.5,Calm,Calm,-,N/A,Fog,Fog,0,2007-01-01 18:03:00
1:17 PM,55.4,53.6,94,29.82,1.0,Calm,Calm,-,0.01,,Overcast,0,2007-01-01 18:17:00
1:34 PM,55.4,53.6,94,29.82,0.5,Calm,Calm,-,0.02,Fog-Rain,Light Rain,0,2007-01-01 18:34:00
1:51 PM,55.9,54.0,93,29.78,0.5,Calm,Calm,-,0.02,Fog-Rain,Light Rain,0,2007-01-01 18:51:00
2:34 PM,55.4,53.6,94,29.77,1.0,Calm,Calm,-,0.02,Rain,Light Rain,0,2007-01-01 19:34:00
2:51 PM,55.9,54.0,93,29.73,2.5,SSE,3.5,-,0.03,Rain,Light Rain,150,2007-01-01 19:51:00
3:10 PM,55.4,55.4,100,29.74,1.2,SSE,5.8,-,0.02,Rain,Rain,150,2007-01-01 20:10:00
3:51 PM,55.0,54.0,96,29.71,0.8,NNW,3.5,-,0.04,Rain,Light Rain,330,2007-01-01 20:51:00
4:05 PM,55.4,53.6,94,29.74,2.0,Calm,Calm,-,0.01,,Overcast,0,2007-01-01 21:05:00
4:12 PM,55.4,53.6,94,29.75,3.0,WNW,5.8,-,0.01,,Overcast,300,2007-01-01 21:12:00
4:15 PM,55.4,53.6,94,29.75,2.5,Variable,3.5,-,0.01,,Overcast,0,2007-01-01 21:15:00
4:29 PM,55.4,53.6,94,29.75,1.2,WNW,3.5,-,0.01,,Overcast,290,2007-01-01 21:29:00
4:44 PM,55.4,53.6,94,29.76,0.5,Calm,Calm,-,0.01,Fog,Fog,0,2007-01-01 21:44:00
4:51 PM,55.0,53.1,93,29.74,0.8,Calm,Calm,-,0.01,,Overcast,0,2007-01-01 21:51:00
5:06 PM,55.4,53.6,94,29.74,1.0,Calm,Calm,-,N/A,,Overcast,0,2007-01-01 22:06:00
5:28 PM,53.6,53.6,100,29.72,0.8,Calm,Calm,-,N/A,,Overcast,0,2007-01-01 22:28:00
5:36 PM,53.6,53.6,100,29.75,1.0,Calm,Calm,-,N/A,,Overcast,0,2007-01-01 22:36:00
5:42 PM,53.6,53.6,100,29.75,1.0,Calm,Calm,-,N/A,,Overcast,0,2007-01-01 22:42:00
5:48 PM,55.4,53.6,94,29.76,3.0,Calm,Calm,-,N/A,,Overcast,0,2007-01-01 22:48:00
5:51 PM,55.0,53.1,93,29.74,4.0,Calm,Calm,-,N/A,,Overcast,0,2007-01-01 22:51:00
6:10 PM,55.4,53.6,94,29.74,2.0,West,3.5,-,N/A,,Overcast,280,2007-01-01 23:10:00
6:20 PM,53.6,53.6,100,29.74,5.0,Calm,Calm,-,N/A,,Overcast,0,2007-01-01 23:20:00
6:48 PM,53.6,51.8,94,29.74,2.5,Variable,3.5,-,N/A,,Overcast,0,2007-01-01 23:48:00
6:51 PM,54.0,52.0,93,29.72,2.5,Variable,3.5,-,N/A,,Overcast,0,2007-01-01 23:51:00
6:58 PM,53.6,51.8,94,29.74,3.0,Calm,Calm,-,N/A,,Overcast,0,2007-01-01 23:58:00
7:20 PM,53.6,51.8,94,29.77,6.0,Variable,4.6,-,N/A,,Overcast,0,2007-01-02 00:20:00
7:51 PM,53.1,51.1,93,29.75,8.0,WNW,6.9,-,N/A,,Overcast,300,2007-01-02 00:51:00
8:12 PM,51.8,48.2,88,29.77,10.0,WNW,4.6,-,N/A,,Overcast,300,2007-01-02 01:12:00
8:27 PM,51.8,48.2,88,29.77,10.0,West,3.5,-,N/A,,Overcast,270,2007-01-02 01:27:00
8:51 PM,52.0,48.9,89,29.73,10.0,Calm,Calm,-,N/A,,Overcast,0,2007-01-02 01:51:00
9:51 PM,52.0,46.0,80,29.72,10.0,West,5.8,-,N/A,,Overcast,280,2007-01-02 02:51:00
10:51 PM,51.1,45.0,80,29.74,10.0,West,9.2,-,N/A,,Overcast,280,2007-01-02 03:51:00
11:51 PM,50.0,41.0,71,29.76,10.0,WNW,4.6,-,N/A,,Overcast,290,2007-01-02 04:51:00